Wetbulb
45.58 45.61 45.71 46.38 46.70 47.03 44.16 39.03 30.94 41.54 44.82 33.04 33.18 27.67 29.28 34.65 32.41 35.94 32.97 33.66 31.61 28.89 29.88 28.32 28.39 30.59 34.41 40.46 41.78 37.35 40.53 37.12 29.65 34.27 40.60 41.95 39.18 37.51 38.30 32.64 29.92 31.03 29.96 32.95
45.17 45.62 45.99 46.03 46.46 46.53 38.78 34.95 35.37 42.69 41.83 26.97 27.23 31.38 31.20 32.85 30.79 31.78 32.23 32.02 33.69 33.37 29.22 25.75 29.36 30.94 38.12 41.93 41.32 38.58 39.30 35.96 30.42 30.44 36.32 39.35 36.31 38.32 39.00 37.95 35.28 31.54 29.46 31.56
44.87 45.30 45.91 45.79 46.10 46.62 40.89 35.50 29.29 35.68 38.63 34.17 29.07 27.90 28.87 29.00 34.96 31.50 32.31 32.29 32.97 31.19 28.89 32.32 29.40 30.51 35.45 38.06 37.04 44.69 41.70 35.82 33.89 29.90 32.40 37.16 34.74 37.45 39.51 38.11 31.37 32.98 34.42 34.87
45.44 45.80 45.53 46.38 46.48 46.27 41.15 35.70 31.19 35.04 25.02 30.78 31.26 29.91 29.80 27.83 29.25 33.14 32.67 29.52 29.81 28.76 25.92 26.93 26.99 30.49 32.29 35.08 38.93 40.86 39.60 31.66 34.49 36.06 37.70 37.49 37.17 37.09 37.74 36.85 36.95 33.29 34.65 36.68
45.69 45.61 46.37 46.29 45.84 46.53 38.81 32.33 32.21 34.76 34.93 31.93 31.92 31.96 29.10 28.65 30.60 31.69 30.13 29.01 32.18 30.93 27.08 28.54 27.17 30.95 31.56 31.19 38.24 37.68 38.65 31.17 33.41 32.30 34.65 36.53 35.05 38.06 38.57 38.41 37.26 36.83 36.47 36.15
45.80 45.97 45.69 45.60 45.85 44.92 37.43 38.29 39.79 36.21 33.12 30.91 31.14 30.22 30.88 30.72 32.66 34.58 35.25 33.95 32.72 31.12 32.58 34.60 35.41 35.33 35.11 34.36 32.28 34.38 35.66 34.06 31.37 27.26 32.99 34.29 30.57 35.02 38.38 38.49 38.88 38.25 34.38 38.21
45.92 45.89 46.08 45.97 45.84 45.35 40.96 40.83 38.83 33.71 28.69 30.84 29.85 32.10 33.40 31.83 33.33 31.29 35.63 36.83 33.62 36.46 40.58 40.34 38.17 35.91 35.33 34.76 34.26 35.58 33.03 33.47 31.35 29.06 31.99 26.51 35.90 40.40 41.28 39.46 40.41 40.27 39.75 40.21
45.68 45.40 45.70 46.22 46.29 46.44 42.71 42.31 39.81 35.38 29.32 32.22 32.12 32.67 33.30 34.76 35.23 34.11 34.70 36.40 39.45 41.19 38.59 34.47 30.55 27.58 30.03 31.59 33.62 33.31 37.04 34.20 30.68 27.97 28.81 33.10 35.43 38.78 38.07 37.38 38.32 42.75 41.35 41.63
46.18 46.25 45.96 46.24 46.43 46.76 44.53 43.13 43.67 39.61 31.85 29.71 35.10 32.62 34.33 31.92 32.42 32.94 34.70 39.86 41.97 39.89 34.41 31.41 25.85 21.73 26.84 26.78 31.45 36.43 37.30 36.46 32.14 30.88 26.82 24.61 34.49 39.70 43.53 42.81 33.34 42.43 41.92 42.34
45.54 45.56 45.71 46.26 46.50 46.87 44.97 43.15 44.61 40.15 33.74 35.80 36.02 32.46 32.23 36.27 34.95 32.54 34.77 36.02 35.70 38.11 31.41 27.14 25.57 25.15 31.62 25.03 24.82 30.43 31.23 32.47 29.31 29.83 29.47 31.98 40.14 42.21 43.45 31.77 32.77 43.16 43.61 43.21
46.01 45.84 45.75 46.10 46.33 46.93 45.21 42.34 44.80 40.48 35.57 37.44 38.67 38.99 35.84 36.37 35.96 31.43 35.36 34.69 33.90 32.62 29.19 28.54 28.08 25.12 27.72 27.30 29.96 30.03 28.56 29.14 29.29 31.96 29.24 26.49 41.78 41.20 37.91 40.71 43.16 44.42 44.45 44.64
45.40 45.87 46.06 46.20 46.38 46.34 46.77 40.19 45.16 44.82 39.10 38.32 41.97 42.17 43.10 42.05 41.12 37.71 38.25 35.76 34.70 33.64 30.73 27.94 27.92 23.84 24.27 28.00 23.86 32.28 27.83 32.62 30.20 33.24 33.32 40.95 41.52 41.86 43.73 45.76 45.45 44.53 46.03 46.29
45.22 45.35 45.84 46.19 46.41 46.55 45.57 43.20 44.02 42.11 37.59 36.98 38.00 38.69 41.84 44.36 44.41 45.09 35.16 35.71 39.78 38.30 37.45 35.89 31.78 25.98 29.00 23.16 25.97 29.24 32.82 38.35 34.03 34.76 37.42 38.99 41.41 43.19 44.56 45.39 46.08 48.39 47.09 47.56
45.12 45.40 45.73 46.01 46.19 46.45 46.04 41.86 44.68 42.14 37.25 32.01 36.10 42.42 40.63 44.63 44.54 44.08 43.37 41.33 42.92 41.02 40.86 36.91 34.62 28.66 34.04 27.65 30.71 30.05 33.63 35.87 34.44 34.77 39.50 41.44 42.78 43.47 43.88 43.60 45.27 46.90 48.18 48.03
45.80 46.01 45.97 46.15 46.18 46.54 45.48 43.96 44.23 44.77 39.09 32.81 34.62 39.07 41.44 43.28 43.00 42.72 42.57 42.54 41.37 39.66 37.53 35.10 34.02 35.86 36.12 32.06 32.01 29.37 35.27 34.10 32.19 31.77 39.46 38.55 39.40 41.47 43.08 43.25 43.28 45.14 46.26 47.50
46.11 46.27 46.19 46.29 46.45 46.38 43.36 37.44 43.05 44.60 44.43 36.96 30.91 38.29 38.07 40.87 41.86 41.60 40.50 41.32 41.32 40.28 37.06 36.48 36.82 38.53 35.36 31.05 27.61 34.88 37.31 38.57 39.39 37.83 40.86 40.38 41.62 42.52 43.65 42.23 39.27 41.08 40.39 42.03
45.83 46.17 46.29 46.35 46.29 45.03 37.45 35.50 40.51 44.86 44.25 36.62 31.83 32.87 37.54 40.33 40.83 40.19 40.19 41.77 40.85 40.53 38.83 36.62 34.86 35.37 37.85 31.81 30.29 35.50 38.42 39.22 39.45 40.74 41.01 39.35 40.12 41.36 40.07 38.96 38.85 38.10 35.34 34.65
45.73 45.71 46.24 46.22 46.52 45.15 40.51 43.36 44.93 44.31 40.00 38.76 29.87 31.95 34.52 39.27 36.56 35.83 38.85 38.27 39.58 39.63 38.12 37.94 32.65 34.37 33.97 31.39 33.17 37.11 39.42 40.10 40.08 41.12 41.79 40.82 41.39 40.43 37.41 36.99 34.26 31.33 29.30 29.27
45.95 45.84 46.27 45.09 40.42 35.48 41.29 45.38 45.09 44.72 39.83 32.30 29.64 30.57 29.63 39.50 37.26 38.22 37.15 38.98 31.87 37.76 33.92 34.93 34.03 29.82 30.41 34.04 34.75 35.84 37.28 38.84 38.70 38.39 38.89 40.30 39.92 36.58 35.45 33.64 31.54 28.56 26.28 26.41
45.96 43.07 35.26 31.15 39.76 45.60 44.80 40.91 37.63 36.75 38.05 34.96 28.01 32.94 31.89 36.67 34.58 33.35 33.79 34.32 32.04 29.75 32.60 34.01 29.34 28.37 34.07 35.47 36.95 36.81 37.07 36.53 36.13 34.96 36.45 36.23 35.44 32.85 30.25 28.43 27.99 26.68 25.27 24.90
39.66 35.69 34.62 42.14 45.15 40.35 37.10 30.53 31.23 31.86 29.64 32.12 32.12 33.23 32.63 35.05 32.27 31.81 31.87 31.65 30.46 24.59 26.86 29.31 28.55 28.40 32.39 34.36 34.59 34.76 35.25 35.32 34.17 34.01 33.98 35.60 35.03 28.41 27.03 26.10 26.52 26.00 25.10 23.95
40.72 40.46 42.32 40.32 36.75 32.75 29.78 28.98 30.32 30.25 27.18 31.81 28.46 31.60 30.33 33.13 36.07 33.04 32.66 28.52 29.39 23.52 29.31 29.37 25.97 29.36 30.46 31.50 30.48 31.18 31.91 33.32 31.79 30.58 28.36 28.79 28.38 27.51 26.27 24.64 23.74 23.23 22.76 21.71
39.81 35.13 30.42 30.35 25.72 24.73 24.33 19.18 25.70 26.98 30.67 31.62 30.94 29.60 32.03 31.98 33.40 31.30 31.02 28.85 26.63 31.81 29.28 25.97 25.79 26.96 28.75 29.33 30.36 28.96 29.66 29.41 28.73 27.71 27.49 26.81 25.88 25.75 24.52 22.90 23.22 22.54 21.41 21.05
30.59 24.50 15.89 17.70 11.30 18.87 20.88 21.74 25.96 27.69 30.16 28.00 29.92 30.31 29.19 29.95 28.62 30.02 26.05 26.30 31.56 27.83 25.24 19.03 22.61 26.28 26.91 27.12 27.48 26.53 25.54 25.97 25.74 25.32 25.28 24.57 23.92 23.24 23.58 23.13 22.51 20.99 19.64 19.33
22.79 22.19 14.76 17.38 22.70 22.39 23.57 24.81 26.72 26.58 29.16 31.65 31.00 31.94 30.82 29.62 28.75 29.29 29.26 26.97 20.63 17.60 14.47 19.39 23.01 25.12 25.07 24.57 24.86 24.46 23.99 23.46 23.45 23.57 22.90 22.38 22.41 21.82 20.83 21.28 21.47 19.98 18.84 17.75
22.64 18.46 17.38 18.64 18.71 16.71 18.79 19.53 21.41 25.39 25.23 30.50 32.70 31.00 28.07 24.44 23.64 21.05 18.39 16.14 12.37 16.60 21.58 23.68 24.13 22.95 23.23 23.39 23.61 23.32 23.11 22.52 22.15 22.14 21.95 21.57 20.41 19.46 19.41 20.23 19.74 19.25 18.43 17.26
20.89 16.44 19.24 18.14 17.06 15.16 16.73 18.87 19.97 24.55 26.29 25.35 26.72 21.47 19.37 24.95 19.41 16.71 18.99 10.94 18.05 21.34 22.15 23.41 23.68 22.79 22.61 23.32 23.22 22.86 22.64 21.73 21.51 21.31 21.12 20.45 20.77 20.14 18.44 15.88 16.80 17.28 16.75 15.43
MSLP
1014.82 1015.08 1015.39 1015.59 1015.96 1016.42 1016.95 1017.33 1016.84 1016.23 1016.53 1017.36 1016.48 1015.79 1015.79 1015.29 1014.48 1013.83 1013.61 1013.47 1013.27 1013.05 1013.15 1013.17 1012.83 1011.95 1011.00 1010.33 1010.16 1010.04 1009.94 1009.34 1007.82 1005.91 1004.74 1004.44 1004.48 1004.31 1004.70 1005.54 1005.95 1005.73 1005.06 1003.42
1014.08 1014.43 1014.55 1014.87 1015.35 1015.81 1016.78 1016.52 1016.23 1016.33 1016.03 1015.59 1015.37 1015.44 1015.34 1015.27 1015.06 1014.54 1014.17 1013.90 1013.67 1013.62 1013.68 1013.96 1013.10 1012.37 1011.28 1010.94 1010.84 1011.05 1010.60 1010.15 1009.22 1006.86 1005.45 1004.64 1004.61 1004.41 1004.44 1004.57 1005.03 1004.36 1004.28 1002.89
1013.19 1013.52 1013.78 1014.14 1014.61 1015.02 1016.36 1016.22 1015.76 1015.58 1015.01 1014.60 1014.75 1015.05 1014.97 1014.80 1014.66 1014.79 1014.53 1014.21 1014.10 1014.13 1014.15 1013.85 1013.52 1012.95 1011.98 1011.33 1011.37 1011.28 1011.19 1010.59 1010.50 1009.43 1008.31 1007.01 1005.78 1004.04 1003.88 1004.24 1004.25 1003.65 1002.31 1002.35
1012.05 1012.39 1012.78 1013.25 1013.80 1014.32 1015.75 1015.33 1014.32 1013.99 1013.72 1013.66 1014.02 1014.33 1013.80 1013.94 1014.14 1014.22 1014.06 1014.20 1014.15 1014.35 1014.30 1014.00 1013.61 1013.30 1012.64 1011.68 1011.38 1011.43 1011.41 1010.94 1010.53 1009.96 1009.33 1008.16 1006.01 1004.92 1003.40 1003.10 1002.89 1002.92 1002.24 1001.70
1010.70 1011.06 1011.55 1012.08 1012.80 1013.60 1014.67 1013.96 1013.63 1013.45 1012.85 1012.85 1013.10 1013.29 1012.89 1013.22 1013.45 1013.60 1013.64 1013.66 1013.60 1013.72 1013.77 1013.89 1013.44 1013.00 1012.81 1012.10 1011.89 1011.83 1011.99 1011.39 1010.76 1009.27 1008.45 1007.02 1005.39 1004.08 1003.11 1002.23 1002.03 1001.78 1001.43 1001.23
1009.06 1009.48 1010.03 1010.68 1011.39 1012.36 1012.64 1012.73 1012.85 1013.00 1011.86 1012.52 1012.46 1011.73 1012.12 1012.17 1012.78 1012.60 1012.62 1012.90 1013.10 1012.88 1012.43 1012.76 1013.10 1012.93 1012.89 1012.82 1012.70 1012.71 1012.60 1011.93 1011.03 1008.89 1008.24 1006.97 1004.73 1002.24 1001.28 1001.47 1001.21 1000.87 1000.68 1000.59
1007.25 1007.71 1008.39 1009.16 1009.87 1010.40 1011.21 1011.23 1012.28 1012.02 1011.18 1010.93 1010.34 1010.79 1011.25 1011.52 1011.65 1011.93 1011.92 1012.31 1012.59 1011.42 1012.23 1012.32 1012.34 1012.12 1011.99 1012.01 1011.96 1011.99 1012.07 1012.06 1011.41 1009.56 1008.51 1006.49 1002.43 1000.92 1000.71 1000.60 1000.23 1000.17 999.99 999.89
1005.34 1005.97 1006.69 1007.42 1008.19 1008.94 1010.02 1010.50 1010.74 1010.49 1010.12 1010.19 1010.14 1010.14 1010.29 1010.87 1011.15 1011.20 1011.45 1011.53 1011.28 1011.99 1012.59 1012.64 1012.38 1011.77 1011.58 1010.85 1010.50 1010.56 1010.77 1011.21 1010.90 1009.61 1008.18 1006.66 1003.65 1001.95 1000.87 1000.45 999.59 999.42 999.21 999.30
1003.35 1003.83 1004.71 1005.60 1006.43 1007.41 1008.49 1009.03 1009.81 1009.36 1009.32 1007.72 1009.13 1009.38 1009.43 1009.72 1010.30 1011.09 1010.92 1011.03 1011.21 1012.07 1012.76 1012.69 1012.30 1011.86 1010.85 1010.15 1009.33 1008.79 1009.67 1010.18 1010.31 1009.23 1007.88 1006.34 1003.58 1002.94 1002.04 1000.61 1000.12 998.99 998.79 998.82
1002.37 1002.84 1003.44 1004.02 1004.87 1005.83 1006.93 1007.12 1008.06 1008.86 1008.11 1007.38 1007.65 1007.46 1007.93 1008.84 1009.40 1009.91 1010.15 1010.49 1011.05 1011.70 1012.01 1012.50 1012.25 1011.67 1010.85 1009.91 1009.09 1008.92 1009.30 1009.33 1009.01 1008.43 1007.16 1005.42 1003.65 1003.29 1002.93 1001.94 1000.86 999.81 999.14 998.65
1001.29 1001.74 1002.29 1002.86 1003.60 1004.42 1005.35 1005.88 1006.79 1007.43 1007.49 1007.22 1006.76 1006.80 1006.86 1007.38 1008.09 1009.01 1009.53 1010.23 1010.28 1010.78 1011.44 1011.77 1011.57 1011.25 1010.31 1009.61 1008.75 1008.05 1007.90 1007.95 1007.29 1007.12 1006.51 1005.34 1004.35 1003.33 1003.28 1002.44 1001.00 1000.16 998.97 998.58
1000.34 1000.81 1001.34 1001.82 1002.50 1003.28 1004.17 1005.14 1005.76 1006.87 1007.17 1006.80 1006.25 1005.69 1005.72 1005.82 1006.57 1008.17 1008.79 1008.39 1008.77 1009.35 1010.09 1010.77 1010.58 1010.51 1010.12 1009.21 1008.61 1007.36 1007.35 1006.66 1006.33 1006.14 1004.70 1004.19 1003.49 1003.21 1002.08 1002.35 1001.63 1000.46 999.38 998.69
999.23 999.77 1000.32 1000.89 1001.62 1002.43 1003.46 1003.89 1004.92 1006.18 1006.50 1006.77 1006.61 1005.66 1005.83 1005.74 1005.83 1006.49 1007.53 1007.51 1007.86 1008.56 1008.41 1009.46 1009.59 1009.53 1008.90 1008.76 1007.89 1007.18 1006.25 1005.73 1005.69 1005.43 1004.05 1003.40 1002.79 1001.76 1001.14 1000.92 1000.48 999.93 999.28 999.03
997.86 998.54 999.25 999.92 1000.71 1001.72 1002.78 1003.82 1003.91 1005.08 1005.90 1005.85 1005.06 1004.95 1005.21 1005.00 1005.34 1005.68 1005.94 1006.32 1006.65 1007.41 1008.04 1008.75 1008.98 1008.96 1007.75 1007.68 1006.79 1006.53 1005.35 1004.89 1004.64 1004.16 1003.58 1002.59 1001.77 1001.98 1001.27 1000.90 1000.21 999.85 999.50 1000.45
996.29 997.10 997.95 998.90 999.83 1000.99 1002.42 1003.42 1003.91 1003.98 1004.80 1004.74 1004.71 1004.27 1003.86 1004.15 1004.55 1004.91 1005.45 1005.91 1006.31 1007.32 1008.09 1008.35 1008.30 1008.02 1007.84 1007.31 1006.65 1005.67 1004.66 1004.10 1004.13 1003.33 1002.94 1003.10 1001.91 1001.64 1001.29 1000.56 1000.34 1000.09 1000.40 1000.88
994.71 995.67 996.75 997.93 999.05 1000.47 1001.85 1002.80 1003.45 1003.70 1004.14 1004.43 1004.57 1003.79 1003.16 1003.43 1003.92 1004.59 1005.20 1005.56 1006.21 1006.71 1007.41 1007.70 1007.47 1006.81 1006.76 1006.84 1006.18 1004.58 1003.80 1003.08 1003.04 1003.09 1002.84 1002.80 1001.94 1001.58 1001.47 1001.24 1001.86 1001.51 1001.68 1002.00
993.36 994.52 995.79 997.16 998.44 999.76 1000.54 1001.11 1001.23 1002.86 1004.26 1004.45 1004.70 1003.77 1002.83 1002.91 1003.80 1004.43 1004.99 1005.30 1005.63 1006.34 1007.00 1007.03 1007.09 1006.60 1006.35 1006.30 1005.62 1004.67 1003.80 1003.37 1002.97 1002.73 1002.90 1002.73 1001.95 1001.97 1002.01 1001.88 1002.61 1003.08 1002.57 1003.16
992.40 993.82 995.21 996.67 998.17 999.83 1000.72 1000.66 1000.99 1002.21 1003.84 1004.55 1004.28 1003.64 1003.14 1002.93 1003.63 1004.38 1004.82 1005.28 1005.90 1006.39 1006.34 1006.56 1006.54 1006.37 1006.23 1005.68 1004.82 1004.12 1003.35 1003.03 1003.13 1002.95 1002.86 1002.76 1002.52 1002.63 1002.90 1002.91 1003.30 1004.26 1004.21 1004.98
991.81 993.71 995.42 997.11 998.39 999.44 999.89 1001.08 1001.70 1002.20 1003.12 1003.61 1003.73 1003.34 1003.13 1003.02 1003.72 1004.37 1004.97 1005.31 1005.90 1006.16 1005.84 1005.89 1006.12 1006.03 1005.47 1004.80 1004.11 1003.45 1002.93 1003.01 1002.87 1003.03 1003.26 1002.95 1002.94 1003.24 1003.57 1003.94 1004.83 1005.34 1006.23 1006.67
992.41 994.36 996.10 997.92 997.99 999.06 999.95 1001.71 1002.18 1002.72 1002.79 1003.32 1003.37 1003.39 1003.34 1003.21 1003.69 1004.61 1005.14 1005.37 1005.81 1005.71 1005.44 1005.70 1005.77 1004.97 1004.29 1004.25 1004.32 1004.14 1003.79 1003.53 1003.79 1004.09 1003.69 1003.72 1003.95 1003.74 1004.46 1005.10 1005.94 1007.01 1007.50 1008.40
993.88 995.30 995.89 997.07 998.03 998.79 1000.38 1001.60 1002.13 1002.58 1002.97 1003.15 1003.23 1003.15 1003.34 1003.70 1003.83 1004.47 1004.98 1004.67 1005.31 1005.50 1005.23 1005.58 1005.57 1005.25 1005.07 1005.33 1005.29 1005.14 1004.93 1004.87 1004.85 1004.74 1004.37 1004.03 1003.56 1004.58 1005.66 1006.34 1007.45 1008.09 1008.94 1009.80
994.75 995.58 996.99 997.96 999.15 1000.27 1001.02 1001.70 1001.79 1001.87 1002.16 1002.51 1002.85 1003.35 1003.58 1004.00 1003.89 1004.24 1004.72 1004.70 1005.17 1005.04 1005.21 1005.84 1005.61 1005.58 1006.14 1006.24 1006.25 1006.16 1005.97 1005.63 1005.58 1005.60 1005.52 1005.22 1005.48 1005.56 1006.58 1007.49 1008.89 1009.51 1010.68 1011.65
995.45 996.70 998.76 999.96 1001.37 1001.75 1002.14 1002.36 1002.39 1002.39 1002.28 1002.54 1002.83 1003.45 1003.67 1004.11 1004.23 1004.34 1004.32 1004.57 1004.89 1004.83 1005.43 1005.60 1006.24 1006.79 1006.98 1007.12 1007.10 1007.00 1006.88 1006.78 1006.77 1006.91 1006.80 1006.66 1007.39 1007.65 1008.03 1009.19 1010.20 1010.81 1011.51 1013.01
998.14 999.78 1002.24 1003.30 1004.34 1004.36 1004.34 1003.96 1003.39 1003.45 1003.11 1002.90 1003.01 1003.50 1003.78 1004.06 1004.15 1004.32 1004.58 1004.74 1004.87 1005.42 1005.97 1006.96 1007.73 1008.03 1008.31 1008.33 1008.00 1007.93 1008.01 1007.97 1007.95 1008.09 1008.18 1008.20 1008.67 1009.19 1009.86 1010.59 1011.32 1011.55 1012.90 1013.90
1001.37 1002.46 1004.80 1005.70 1006.04 1005.95 1005.62 1005.14 1004.67 1004.64 1004.03 1003.63 1003.56 1003.55 1003.73 1004.40 1004.92 1005.18 1005.37 1005.60 1006.33 1007.35 1008.16 1008.86 1009.23 1009.28 1009.15 1009.03 1009.09 1009.20 1009.24 1009.27 1009.24 1009.42 1009.44 1009.70 1009.99 1010.77 1011.53 1012.21 1012.14 1012.65 1013.83 1015.18
1003.87 1006.17 1006.96 1007.35 1007.21 1007.36 1006.97 1006.66 1006.21 1005.75 1005.08 1004.12 1003.44 1004.15 1004.87 1005.96 1006.36 1006.88 1007.74 1008.15 1008.91 1009.54 1009.80 1010.04 1010.18 1010.15 1010.22 1010.23 1010.24 1010.28 1010.40 1010.53 1010.79 1010.86 1011.11 1011.61 1011.75 1011.78 1012.31 1013.97 1013.89 1014.38 1015.51 1016.65
1006.45 1008.76 1009.23 1009.20 1009.38 1009.41 1009.03 1008.40 1007.65 1006.82 1005.93 1005.74 1005.63 1006.23 1007.49 1007.67 1008.45 1009.49 1010.03 1010.69 1011.03 1011.04 1011.17 1011.29 1011.35 1011.37 1011.33 1011.34 1011.36 1011.47 1011.63 1011.89 1012.03 1012.27 1012.91 1013.53 1013.87 1013.99 1015.17 1015.65 1015.97 1016.61 1017.45 1018.04
Wind_Speed
19 18 18 16 16 15 7 4 5 3 8 7 4 12 5 2 6 5 4 1 2 2 3 3 1 4 4 5 3 4 3 3 4 11 16 11 4 7 13 10 5 3 4 11
20 20 20 18 16 16 4 4 3 4 6 10 12 4 11 9 4 3 2 4 5 2 2 3 6 6 6 4 5 5 6 2 6 8 5 3 5 5 5 2 3 9 8 5
23 22 21 21 20 18 6 3 5 5 7 6 12 16 13 12 6 14 6 2 2 2 1 3 3 4 6 8 9 5 3 5 6 5 9 15 13 8 14 8 6 7 14 4
24 24 23 22 21 21 8 7 5 6 6 9 13 12 5 18 11 8 9 6 11 6 5 4 10 10 13 13 10 5 3 5 3 11 14 21 27 22 10 15 12 10 5 10
26 27 25 24 25 22 10 6 6 4 3 3 15 16 15 15 15 11 7 8 8 11 11 10 4 3 3 4 3 2 2 4 3 7 14 18 21 21 14 14 5 6 5 7
28 27 28 27 26 25 9 9 4 5 8 12 11 17 18 17 17 10 18 15 12 12 15 11 12 13 10 7 7 1 2 3 2 10 10 21 11 26 21 8 6 6 7 8
30 30 29 29 30 28 10 5 4 7 9 15 18 16 21 21 18 21 8 13 15 18 5 5 5 10 15 14 13 9 7 3 3 6 7 9 9 5 14 14 12 9 5 5
30 30 30 30 32 33 14 10 6 6 11 10 11 14 13 17 19 19 17 17 13 6 3 4 4 3 2 10 17 16 17 7 4 4 4 8 16 6 6 8 19 14 14 7
22 29 30 30 32 33 17 13 11 5 7 18 13 14 16 11 11 11 14 13 9 5 2 2 3 4 4 4 4 14 13 11 8 3 3 6 7 10 15 1 11 7 4 11
22 21 22 26 30 32 19 7 16 7 5 5 15 14 13 12 9 3 4 8 10 13 4 4 5 5 4 3 2 3 5 7 14 8 5 7 4 9 19 6 6 6 4 8
20 20 22 24 25 29 20 11 13 13 2 7 11 14 9 11 14 6 4 5 3 5 7 4 4 4 5 4 5 3 7 6 5 4 5 8 3 12 6 5 8 7 5 7
22 22 22 22 23 24 26 6 11 12 7 2 11 14 17 19 18 11 5 4 3 5 4 3 3 3 0 5 3 4 6 7 3 6 5 4 3 7 19 11 11 9 6 9
24 24 24 24 24 24 21 5 9 9 7 3 7 7 10 5 11 13 9 4 6 3 5 3 3 4 5 4 6 7 5 3 4 1 6 12 10 8 12 12 14 7 4 4
27 27 26 25 25 24 23 9 7 8 3 4 2 12 7 16 10 12 12 6 4 4 3 4 2 3 3 5 6 7 8 3 5 6 13 16 14 7 8 9 11 7 4 4
27 28 28 27 27 25 14 8 5 4 3 3 3 2 19 15 15 16 11 11 4 2 1 2 3 3 2 3 2 3 6 8 4 7 9 3 10 8 12 8 7 4 1 2
27 27 27 27 26 26 9 5 8 9 2 1 1 4 5 17 16 17 8 10 6 4 4 3 4 5 3 3 3 5 7 4 5 4 4 5 15 11 7 3 4 7 10 9
22 27 27 27 27 14 6 4 6 18 5 0 1 3 2 13 8 10 5 5 3 3 3 4 4 3 4 2 4 5 5 6 6 7 3 7 6 5 1 8 5 7 14 15
25 25 25 27 28 14 3 3 19 17 6 1 3 3 1 6 3 5 4 4 3 3 3 3 3 0 2 5 6 12 16 15 7 7 6 8 9 3 3 5 8 10 13 14
28 28 27 14 5 3 6 19 23 2 3 4 3 4 3 4 2 3 2 4 3 3 4 3 4 3 7 8 11 10 10 9 7 3 6 8 6 6 6 7 8 10 11 13
33 14 5 4 5 33 23 3 3 1 0 1 2 2 2 3 2 2 3 3 3 4 5 3 3 5 3 1 5 7 6 3 3 4 5 4 4 5 7 10 10 10 12 14
4 4 4 16 15 5 4 4 4 4 5 4 3 3 3 1 3 3 3 3 4 4 4 6 4 4 2 6 6 7 7 5 5 6 7 8 7 12 12 13 13 13 14 14
7 9 6 4 4 3 4 3 2 3 4 3 5 3 3 2 2 3 2 3 2 5 3 4 4 2 6 6 5 7 7 6 6 6 6 8 10 12 14 14 14 15 15 14
5 6 6 4 5 5 2 4 2 3 2 3 3 4 2 2 2 2 2 4 5 4 4 4 2 5 6 7 4 5 5 6 8 9 10 14 14 14 15 16 14 16 18 15
6 6 7 4 5 4 3 3 3 3 3 3 5 4 3 2 2 2 4 4 2 4 3 1 3 6 6 5 6 6 7 7 9 9 11 14 15 15 15 15 15 18 18 17
6 6 6 4 3 3 4 3 2 4 3 0 2 3 3 3 3 2 1 1 2 1 2 2 3 5 5 6 7 6 7 7 8 9 11 13 15 14 15 14 17 19 19 18
6 9 4 5 3 6 5 6 3 5 5 3 1 3 4 4 2 4 3 2 1 2 2 2 3 6 6 6 7 8 8 10 10 11 12 13 15 17 17 13 16 18 18 18
6 5 5 4 3 3 4 4 5 5 3 3 3 6 3 2 4 3 4 2 3 2 4 4 6 5 6 6 8 9 10 11 12 14 14 14 14 16 17 17 16 18 17 18
Wind_Direction
261 261 253 242 234 229 237 238 221 155 137 194 201 225 177 301 317 4 241 234 309 326 41 346 278 286 297 22 352 6 62 316 291 262 265 275 306 243 212 222 228 227 213 235
256 252 250 238 227 213 141 234 207 175 169 214 217 211 222 232 249 329 253 241 214 183 233 229 225 256 296 112 55 26 347 22 325 329 294 358 240 196 232 166 115 211 209 250
250 245 241 233 222 217 165 251 217 184 212 229 210 215 229 228 197 232 260 289 24 71 253 202 287 335 313 332 328 165 179 210 232 279 300 307 294 219 223 210 221 224 237 204
245 240 235 228 222 216 184 206 212 207 201 226 205 207 212 218 220 207 213 252 246 239 264 278 275 281 272 277 263 172 221 254 222 266 280 280 275 268 232 215 221 217 196 205
242 237 229 226 216 213 208 216 206 201 257 163 194 203 212 226 215 185 208 226 200 219 235 220 277 224 195 263 39 128 183 254 293 279 292 258 256 250 226 225 195 235 219 248
242 236 231 226 215 199 208 212 205 231 229 216 203 211 215 209 213 229 231 210 232 242 225 221 241 253 260 258 283 239 249 272 346 268 312 314 256 227 221 211 200 181 214 199
243 235 227 221 218 208 211 195 183 208 234 201 209 207 212 223 212 219 203 226 237 243 288 258 285 252 239 235 239 222 222 246 224 280 333 249 253 190 217 224 238 217 238 214
242 235 229 221 215 215 213 208 212 190 231 224 225 224 210 211 221 231 227 221 224 240 49 236 254 285 253 236 228 218 209 185 251 246 257 303 305 292 192 183 254 243 248 232
239 227 223 219 215 213 214 208 213 229 208 222 206 208 205 203 205 221 240 250 235 148 211 201 223 227 227 240 233 212 193 208 215 213 199 240 225 319 333 2 277 234 201 245
226 220 218 218 216 212 206 209 194 199 247 195 190 205 206 200 173 199 174 220 220 201 183 220 219 230 261 269 272 160 190 200 222 216 242 269 258 343 311 176 252 335 292 286
227 222 216 211 212 211 206 207 191 200 213 212 213 203 196 185 191 175 158 177 184 163 185 200 184 192 228 201 248 208 193 186 202 200 221 263 358 7 306 277 305 328 340 356
224 222 220 217 211 205 199 207 182 193 224 297 224 213 213 196 184 179 205 204 152 156 151 193 184 214 106 179 226 232 256 192 216 188 222 205 265 259 268 257 262 288 360 337
224 224 221 217 210 206 194 185 162 175 201 260 246 211 245 218 189 174 193 239 169 223 183 149 236 219 139 173 223 222 254 178 218 107 251 241 259 257 263 241 246 242 330 343
220 219 216 214 209 200 193 196 169 166 137 235 193 207 214 216 217 200 213 211 134 137 125 188 222 218 167 214 211 180 213 175 205 242 278 280 271 243 278 276 260 268 123 17
219 216 210 207 205 194 184 179 209 170 169 169 182 197 226 218 212 210 205 223 191 204 97 216 219 215 199 275 328 220 202 223 199 251 243 230 276 295 301 301 316 334 311 190
212 205 204 202 196 183 161 162 196 187 228 23 287 292 192 205 202 210 198 208 197 161 195 199 222 241 171 207 248 262 229 234 173 235 247 246 276 289 282 99 33 79 70 32
199 192 191 189 184 171 164 177 155 161 144 6 257 272 248 185 178 208 202 163 179 154 208 213 216 227 186 207 219 280 288 267 254 238 299 290 255 292 72 115 85 33 85 76
184 182 175 167 166 150 135 319 151 137 130 252 190 257 121 152 138 168 157 164 133 210 201 202 198 52 163 245 229 225 236 242 247 245 216 254 283 134 84 78 93 78 66 77
163 160 148 140 81 125 137 137 137 96 128 185 184 158 170 131 105 110 70 135 180 178 223 203 136 194 219 217 222 226 223 197 231 260 254 268 221 148 114 100 82 102 97 93
128 111 81 109 162 116 108 75 122 132 114 118 213 109 189 113 100 89 131 129 200 204 205 144 187 251 222 352 308 337 342 338 358 284 250 183 195 131 97 91 93 100 105 107
56 84 83 109 127 62 69 126 169 149 183 173 186 185 132 335 129 132 215 147 163 174 233 178 225 250 130 7 4 1 359 349 328 292 300 292 155 134 124 107 106 107 105 109
96 109 82 63 60 82 114 140 144 158 176 136 136 150 144 132 68 97 210 139 116 225 140 189 242 85 18 2 359 2 2 12 34 33 52 69 93 108 108 104 108 104 105 106
47 54 63 38 341 73 90 158 125 114 104 150 154 113 113 120 144 125 156 159 204 113 202 211 41 7 7 350 338 42 54 73 85 80 84 88 90 94 103 109 107 106 101 101
59 54 59 66 1 28 23 341 14 40 320 95 105 100 125 144 86 113 125 210 150 221 224 176 1 4 6 12 25 50 54 70 86 91 96 95 97 97 100 106 110 107 101 100
59 34 51 55 32 5 353 321 40 359 307 290 134 99 95 71 101 16 29 79 95 90 282 325 332 12 25 30 44 52 57 63 72 81 89 92 93 90 93 99 104 101 99 96
67 42 22 351 26 1 6 358 5 359 326 259 29 97 82 45 62 53 27 65 16 317 357 13 13 39 41 45 55 62 70 72 76 77 80 84 92 99 94 89 92 93 102 104
56 45 9 7 40 355 333 330 332 310 314 50 24 56 54 15 59 55 21 62 343 29 39 38 44 47 54 63 75 79 84 87 88 90 90 91 93 92 98 90 84 87 86 88